Weather in Altayskoye

Russia / Altai Krai     52°47′08″N   78°45′27″E
temp.,
°C
wind,
m/s
gust,
m/s
humid.,
%
clouds,
%
prec.,
mm/h
press.,
hPa
HPBL,
m
28 february, sun
sun2801:00−26sse349111 0.0 103842
04:00−26sse469120 0.0 103683
07:00−25se478954 0.0 1034126
10:00−21se588899 0.0 1031252
13:00−14sse6986100 0.0 1027392
16:00−9sse71193100 0.6 1023681
19:00−6sse51194100 1.1 1019502
22:00−5s61196100 0.3 1016395
1 march, mon
mon101:00−3s71496100 1.1 1013598
04:00−2ssw101696100 1.5 1009679
07:00+1sw91498100 3.3 1008551
10:00+1sw71598100 1.3 1007701
13:00+1sw81596100 1.3 1008732
16:00+1sw71310082 0.2 1007666
19:000wsw8158991 0.5 1008766
22:00−4wsw7148759 0.0 1009358
2 march, tue
tue201:00−5wsw8148962 0.0 1013600
04:00−14wsw6109472 0.0 1015265
07:00−17wsw589582 0.0 1018181
10:00−17wsw469536 0.0 1019179
13:00−14sw349244 0.0 1019260
16:00−13sw349290 0.0 1018305
19:00−15sw119587 0.0 101720
22:00−14sw019498 0.0 101720
3 march, wed
wed301:00−14ssw129598 0.1 101620
04:00−14sw2396100 0.1 101658
07:00−13wsw2396100 0.5 101868
10:00−12wsw4894100 0.3 1018328
13:00−13wsw579297 0.4 1020399
16:00−14sw5891100 0.0 1021404
19:00−15ssw4794100 0.0 1022154
22:00−16s489393 0.0 1022144
4 march, thu
thu401:00−13s5108996 0.0 1022249
04:00−13ssw5108895 0.0 1020246
07:00−13s5108698 0.0 1020240
10:00−12s6128693 0.0 1019283
13:00−8s7128696 0.0 1018371
16:00−5s71284100 0.0 1016422
19:00−5s6138599 0.0 1014376
22:00−7sse61485100 0.0 1012282